Location: Unspecified
(0.0000°N, 0.0000°E)
Time: 08:39:01
(UTC+00:00)

Vanguard 2 - Pass Details

Date: 16 December 2017
Orbit: 553 x 2939 km, 32.9° (Epoch: 20 June)

Event Time Altitude Azimuth Distance (km) Brightness Sun altitude
Rises 06:51:01 0° 219° (SW) 6,246 12.0 12.7°
Reaches altitude 10° 06:56:17 10° 207° (SSW) 5,497 11.9 13.9°
Maximum altitude 07:09:27 26° 157° (SSE) 4,571 12.4 16.9°
Drops below altitude 10° 07:22:27 10° 107° (ESE) 5,485 14.1 19.9°
Sets 07:27:35 0° 95° (E) 6,237 13.4 21.0°
